When you browse on this site, cookies collect data to enhance your experience and personalize the content and advertising you see.
Visit our Privacy Policy to learn more. By continuing to use the site, you agree to this use of cookies and data.
  • In Hungary
  • List of Countries
  • For 7 days
  • Water Temperature
  • Weather Map
  • News
  • Weather Widgets
  • user-avatar
    Login

    Hourly Weather Ganta

    Today, 7 December, Saturday

    Time Temperature Precipitation Wind Pressure Humidity
    00:00 +21°C° 0 mm 0 mps 722 mmHg 76%
    01:00 +20°C° 0 mm 0 mps 722 mmHg 83%
    02:00 +20°C° 0 mm 0 mps 722 mmHg 89%
    03:00 +20°C° 0 mm 0 mps 722 mmHg 92%
    04:00 +20°C° 0 mm 0 mps 722 mmHg 94%
    05:00 +20°C° 0 mm 0 mps 722 mmHg 97%
    06:00 +22°C° 0 mm 0 mps 723 mmHg 90%
    07:00 +25°C° 0 mm 1 mps 723 mmHg 84%
    08:00 +27°C° 0 mm 1 mps 723 mmHg 77%
    09:00 +30°C° 0 mm 1 mps 723 mmHg 64%
    10:00 +33°C° 0 mm 1 mps 723 mmHg 52%
    11:00 +33°C° 0 mm 0 mps 723 mmHg 39%
    12:00 +34°C° 0 mm 0 mps 722 mmHg 36%
    13:00 +36°C° 0 mm 1 mps 722 mmHg 33%
    14:00 +36°C° 0 mm 1 mps 721 mmHg 30%
    15:00 +34°C° 0 mm 1 mps 721 mmHg 38%
    16:00 +29°C° 0 mm 0 mps 721 mmHg 45%
    17:00 +27°C° 0 mm 0 mps 721 mmHg 53%
    18:00 +27°C° 0 mm 0 mps 721 mmHg 54%
    19:00 +26°C° 0 mm 0 mps 722 mmHg 54%
    20:00 +26°C° 0 mm 0 mps 723 mmHg 55%
    21:00 +25°C° 0 mm 0 mps 723 mmHg 62%
    22:00 +26°C° 0 mm 1 mps 723 mmHg 68%
    23:00 +25°C° 0 mm 1 mps 723 mmHg 75%

    Tomorrow, 8 December, Sunday

    Time Temperature Precipitation Wind Pressure Humidity
    00:00 +25°C° 0.1 mm 1 mps 723 mmHg 82%
    01:00 +24°C° 0.1 mm 1 mps 722 mmHg 89%
    02:00 +23°C° 0.1 mm 1 mps 722 mmHg 96%
    03:00 +21°C° 0 mm 0 mps 722 mmHg 97%
    04:00 +21°C° 0 mm 0 mps 722 mmHg 98%
    05:00 +20°C° 0 mm 0 mps 722 mmHg 99%
    06:00 +22°C° 0 mm 0 mps 722 mmHg 91%
    07:00 +26°C° 0 mm 1 mps 723 mmHg 83%
    08:00 +27°C° 0 mm 1 mps 723 mmHg 76%
    09:00 +30°C° 0 mm 1 mps 723 mmHg 64%
    10:00 +33°C° 0 mm 1 mps 723 mmHg 52%
    11:00 +33°C° 0 mm 0 mps 723 mmHg 40%
    12:00 +36°C° 0 mm 1 mps 722 mmHg 37%
    13:00 +36°C° 0 mm 1 mps 721 mmHg 33%
    14:00 +36°C° 0 mm 1 mps 721 mmHg 30%
    15:00 +34°C° 0 mm 1 mps 721 mmHg 38%
    16:00 +32°C° 0 mm 1 mps 721 mmHg 45%
    17:00 +27°C° 0 mm 0 mps 720 mmHg 53%
    18:00 +26°C° 0 mm 0 mps 721 mmHg 59%
    19:00 +25°C° 0 mm 0 mps 722 mmHg 64%
    20:00 +26°C° 0 mm 1 mps 722 mmHg 70%
    21:00 +23°C° 0 mm 0 mps 722 mmHg 77%
    22:00 +23°C° 0 mm 0 mps 723 mmHg 84%
    23:00 +22°C° 0 mm 0 mps 723 mmHg 91%

    Day after tomorrow, 9 December, Monday

    Time Temperature Precipitation Wind Pressure Humidity
    00:00 +22°C° 0 mm 0 mps 722 mmHg 93%
    01:00 +21°C° 0 mm 0 mps 722 mmHg 96%
    02:00 +21°C° 0 mm 0 mps 722 mmHg 98%
    03:00 +21°C° 0.5 mm 0 mps 722 mmHg 98%
    04:00 +21°C° 0.5 mm 0 mps 722 mmHg 98%
    05:00 +21°C° 0.5 mm 0 mps 722 mmHg 99%
    06:00 +22°C° 0 mm 0 mps 723 mmHg 92%
    07:00 +24°C° 0 mm 0 mps 723 mmHg 86%
    08:00 +25°C° 0 mm 0 mps 724 mmHg 80%
    09:00 +27°C° 0 mm 0 mps 724 mmHg 71%
    10:00 +31°C° 0 mm 1 mps 723 mmHg 62%
    11:00 +32°C° 0 mm 1 mps 723 mmHg 53%
    12:00 +32°C° 0.3 mm 1 mps 722 mmHg 54%
    13:00 +32°C° 0.3 mm 1 mps 722 mmHg 54%
    14:00 +32°C° 0.3 mm 1 mps 721 mmHg 55%
    15:00 +30°C° 0.7 mm 1 mps 721 mmHg 65%
    16:00 +28°C° 0.7 mm 1 mps 721 mmHg 76%
    17:00 +26°C° 0.7 mm 1 mps 721 mmHg 87%
    18:00 +25°C° 0.3 mm 1 mps 722 mmHg 90%
    19:00 +25°C° 0.3 mm 1 mps 722 mmHg 92%
    20:00 +24°C° 0.3 mm 1 mps 723 mmHg 95%
    21:00 +24°C° 0.3 mm 1 mps 723 mmHg 96%
    22:00 +24°C° 0.3 mm 1 mps 723 mmHg 97%
    23:00 +21°C° 0.3 mm 0 mps 723 mmHg 98%

    10 December, Tuesday

    Time Temperature Precipitation Wind Pressure Humidity
    00:00 +21°C° 0.4 mm 0 mps 723 mmHg 98%
    01:00 +21°C° 0.4 mm 0 mps 722 mmHg 99%
    02:00 +21°C° 0.4 mm 0 mps 722 mmHg 99%
    03:00 +21°C° 0 mm 0 mps 722 mmHg 99%
    04:00 +21°C° 0 mm 0 mps 722 mmHg 99%
    05:00 +20°C° 0 mm 0 mps 722 mmHg 99%
    06:00 +22°C° 0 mm 0 mps 723 mmHg 93%
    07:00 +23°C° 0 mm 0 mps 723 mmHg 88%
    08:00 +25°C° 0 mm 0 mps 724 mmHg 83%
    09:00 +27°C° 0.1 mm 0 mps 724 mmHg 72%
    10:00 +29°C° 0.1 mm 0 mps 723 mmHg 61%
    11:00 +32°C° 0.1 mm 0 mps 723 mmHg 51%
    12:00 +31°C° 0.7 mm 0 mps 722 mmHg 55%
    13:00 +30°C° 0.7 mm 0 mps 721 mmHg 60%
    14:00 +31°C° 0.7 mm 1 mps 721 mmHg 64%
    15:00 +29°C° 0.5 mm 1 mps 721 mmHg 72%
    16:00 +27°C° 0.5 mm 1 mps 721 mmHg 80%
    17:00 +26°C° 0.5 mm 1 mps 721 mmHg 88%
    18:00 +25°C° 0 mm 1 mps 721 mmHg 89%
    19:00 +22°C° 0 mm 0 mps 722 mmHg 90%
    20:00 +22°C° 0 mm 0 mps 723 mmHg 90%
    21:00 +22°C° 0 mm 0 mps 723 mmHg 92%
    22:00 +21°C° 0 mm 0 mps 723 mmHg 93%
    23:00 +21°C° 0 mm 0 mps 723 mmHg 94%

    11 December, Wednesday

    Time Temperature Precipitation Wind Pressure Humidity
    00:00 +21°C° 0.3 mm 0 mps 722 mmHg 96%
    01:00 +21°C° 0.3 mm 0 mps 722 mmHg 97%
    02:00 +20°C° 0.3 mm 0 mps 722 mmHg 98%
    03:00 +20°C° 0 mm 0 mps 722 mmHg 99%
    04:00 +20°C° 0 mm 0 mps 722 mmHg 99%
    05:00 +20°C° 0 mm 0 mps 722 mmHg 99%
    06:00 +22°C° 0 mm 0 mps 722 mmHg 93%
    07:00 +23°C° 0 mm 0 mps 723 mmHg 88%
    08:00 +25°C° 0 mm 0 mps 724 mmHg 83%
    09:00 +27°C° 0 mm 0 mps 723 mmHg 73%
    10:00 +29°C° 0 mm 0 mps 723 mmHg 62%
    11:00 +31°C° 0 mm 0 mps 723 mmHg 52%
    12:00 +31°C° 0 mm 0 mps 722 mmHg 49%
    13:00 +31°C° 0 mm 0 mps 721 mmHg 47%
    14:00 +32°C° 0 mm 0 mps 720 mmHg 44%
    15:00 +32°C° 0 mm 1 mps 720 mmHg 52%
    16:00 +30°C° 0 mm 1 mps 720 mmHg 61%
    17:00 +28°C° 0 mm 1 mps 720 mmHg 69%
    18:00 +27°C° 0 mm 1 mps 721 mmHg 75%
    19:00 +24°C° 0 mm 0 mps 721 mmHg 80%
    20:00 +22°C° 0 mm 0 mps 722 mmHg 86%
    21:00 +22°C° 0.3 mm 0 mps 722 mmHg 89%
    22:00 +22°C° 0.3 mm 0 mps 722 mmHg 92%
    23:00 +21°C° 0.3 mm 0 mps 722 mmHg 95%

    12 December, Thursday

    Time Temperature Precipitation Wind Pressure Humidity
    00:00 +21°C° 0.2 mm 0 mps 722 mmHg 96%
    01:00 +21°C° 0.2 mm 0 mps 722 mmHg 97%
    02:00 +21°C° 0.2 mm 0 mps 721 mmHg 98%
    03:00 +20°C° 0 mm 0 mps 722 mmHg 98%
    04:00 +20°C° 0 mm 0 mps 722 mmHg 98%
    05:00 +20°C° 0 mm 0 mps 722 mmHg 99%
    06:00 +22°C° 0 mm 0 mps 722 mmHg 93%
    07:00 +23°C° 0 mm 0 mps 723 mmHg 88%
    08:00 +24°C° 0 mm 0 mps 724 mmHg 82%
    09:00 +26°C° 0 mm 0 mps 723 mmHg 75%
    10:00 +30°C° 0 mm 1 mps 723 mmHg 67%
    11:00 +31°C° 0 mm 1 mps 723 mmHg 60%
    12:00 +30°C° 0.7 mm 1 mps 722 mmHg 63%
    13:00 +30°C° 0.7 mm 1 mps 721 mmHg 67%
    14:00 +29°C° 0.7 mm 1 mps 721 mmHg 71%
    15:00 +28°C° 0.7 mm 1 mps 721 mmHg 77%
    16:00 +27°C° 0.7 mm 1 mps 721 mmHg 83%
    17:00 +26°C° 0.7 mm 1 mps 721 mmHg 89%
    18:00 +23°C° 0.1 mm 0 mps 722 mmHg 91%
    19:00 +22°C° 0.1 mm 0 mps 722 mmHg 92%
    20:00 +22°C° 0.1 mm 0 mps 723 mmHg 93%
    21:00 +21°C° 0.2 mm 0 mps 723 mmHg 94%
    22:00 +21°C° 0.2 mm 0 mps 723 mmHg 96%
    23:00 +21°C° 0.2 mm 0 mps 723 mmHg 97%
    Show more